Weather History for Austin, MN

Change the Weather History Date:

Thursday, January 17, 2013

  Actual Average Record
Temperature  
Mean Temperature 15 °F -  
Max Temperature 24 °F 20 °F 35 °F (2004)
Min Temperature 6 °F 7 °F -13 °F (1997)
Degree Days  
Heating Degree Days 50    
Moisture  
Dew Point 7 °F    
Average Humidity 68    
Maximum Humidity 86    
Minimum Humidity 49    
Precipitation  
Precipitation 0.00 in - - ()
Sea Level Pressure  
Sea Level Pressure 30.32 in    
Wind  
Wind Speed 7 mph (WNW)    
Max Wind Speed 14 mph    
Max Gust Speed 18 mph    
Visibility 10 miles    
Events      
Averages and records for this station are not official NWS values.
T = Trace of Precipitation, MM = Missing Value Source: NWS Daily Summary

Daily Weather History Graph

Daily Weather History Graph

Search for Another Location

Airport:

Trip Planner

Search our weather history database for the weather conditions in past years. The results will help you decide how hot, cold, wet, or windy it might be!

Date:

Astronomy

Jan. 17, 2013 Rise Set
Actual Time 7:40 AM CST 5:03 PM CST
Civil Twilight 7:09 AM CST 5:35 PM CST
Nautical Twilight 6:33 AM CST 6:10 PM CST
Astronomical Twilight 5:59 AM CST 6:44 PM CST
Moon 10:34 AM CST (1/17) No Moon Set
Length of Visible Light 10h 25m
Length of Day
9h 22m
Waxing Crescent, 38% of the Moon is Illuminated
Jan 17
Waxing Crescent
Jan 18
First Quarter
Jan 26
Full
Feb 3
Last Quarter
Feb 10
New

Hourly Weather History & Observations

Time (CST) Temp. Windchill Dew Point Humidity Pressure Visibility Wind Dir Wind Speed Gust Speed Precip Events Conditions
12:15 AM 15.8 °F 2.1 °F 8.6 °F 73% 30.19 in 10.0 mi NW 12.7 mph - N/A   Clear
12:35 AM 15.8 °F 5.1 °F 8.6 °F 73% 30.19 in 10.0 mi NW 8.1 mph - N/A   Clear
12:55 AM 15.8 °F 4.2 °F 6.8 °F 68% 30.20 in 10.0 mi NW 9.2 mph - N/A   Clear
1:15 AM 14.0 °F 0.5 °F 6.8 °F 73% 30.21 in 10.0 mi NW 11.5 mph 16.1 mph N/A   Clear
1:35 AM 14.0 °F 1.2 °F 6.8 °F 73% 30.23 in 10.0 mi WNW 10.4 mph - N/A   Clear
2:15 AM 12.2 °F -0.2 °F 3.2 °F 67% 30.26 in 10.0 mi NW 9.2 mph 17.3 mph N/A   Clear
2:35 AM 12.2 °F -1.0 °F 3.2 °F 67% 30.27 in 10.0 mi NW 10.4 mph - N/A   Clear
2:55 AM 10.4 °F -4.1 °F 1.4 °F 67% 30.27 in 10.0 mi NW 11.5 mph 16.1 mph N/A   Clear
3:35 AM 10.4 °F -1.5 °F 1.4 °F 67% 30.27 in 10.0 mi WNW 8.1 mph - N/A   Clear
3:56 AM 10.4 °F -1.5 °F 1.4 °F 67% 30.28 in 10.0 mi WNW 8.1 mph - N/A   Clear
4:15 AM 8.6 °F -3.7 °F 1.4 °F 73% 30.29 in 10.0 mi WNW 8.1 mph - N/A   Clear
4:35 AM 8.6 °F -3.7 °F 1.4 °F 73% 30.30 in 10.0 mi NW 8.1 mph - N/A   Clear
4:56 AM 8.6 °F -1.3 °F 1.4 °F 73% 30.30 in 10.0 mi WNW 5.8 mph - N/A   Clear
5:15 AM 8.6 °F -1.3 °F 1.4 °F 73% 30.30 in 10.0 mi WNW 5.8 mph - N/A   Clear
5:35 AM 8.6 °F -5.5 °F -0.4 °F 67% 30.31 in 10.0 mi West 10.4 mph - N/A   Clear
5:56 AM 8.6 °F -1.3 °F -0.4 °F 67% 30.31 in 10.0 mi WNW 5.8 mph - N/A   Clear
6:15 AM 8.6 °F -3.7 °F -0.4 °F 67% 30.32 in 10.0 mi WNW 8.1 mph - N/A   Clear
6:35 AM 6.8 °F -4.8 °F -0.4 °F 72% 30.32 in 10.0 mi NW 6.9 mph - N/A   Clear
6:56 AM 6.8 °F -3.5 °F -0.4 °F 72% 30.32 in 10.0 mi WNW 5.8 mph - N/A   Clear
7:15 AM 6.8 °F -4.8 °F -0.4 °F 72% 30.33 in 10.0 mi WNW 6.9 mph - N/A   Clear
7:35 AM 6.8 °F -2.0 °F -0.4 °F 72% 30.34 in 10.0 mi WNW 4.6 mph - N/A   Mostly Cloudy
7:56 AM 8.6 °F 2.0 °F -0.4 °F 67% 30.35 in 10.0 mi West 3.5 mph - N/A   Overcast
8:15 AM 8.6 °F 0.1 °F -0.4 °F 67% 30.35 in 10.0 mi West 4.6 mph - N/A   Overcast
8:35 AM 8.6 °F 2.0 °F -2.2 °F 62% 30.35 in 10.0 mi West 3.5 mph - N/A   Overcast
8:56 AM 10.4 °F - -2.2 °F 57% 30.35 in 10.0 mi Calm Calm - N/A   Overcast
9:15 AM 10.4 °F 4.0 °F -0.4 °F 62% 30.36 in 10.0 mi West 3.5 mph - N/A   Overcast
9:35 AM 10.4 °F - -0.4 °F 62% 30.36 in 10.0 mi Calm Calm - N/A   Overcast
9:56 AM 12.2 °F 6.1 °F -0.4 °F 57% 30.38 in 10.0 mi West 3.5 mph - N/A   Overcast
10:15 AM 14.0 °F 8.2 °F -0.4 °F 53% 30.37 in 10.0 mi WSW 3.5 mph - N/A   Overcast
10:35 AM 15.8 °F 7.2 °F 1.4 °F 53% 30.37 in 10.0 mi West 5.8 mph - N/A   Overcast
10:55 AM 15.8 °F 7.2 °F -0.4 °F 49% 30.36 in 10.0 mi WSW 5.8 mph - N/A   Overcast
11:15 AM 17.6 °F 8.2 °F 1.4 °F 49% 30.36 in 10.0 mi West 6.9 mph - N/A   Overcast
11:35 AM 17.6 °F 10.7 °F 1.4 °F 49% 30.36 in 10.0 mi West 4.6 mph - N/A   Overcast
11:55 AM 17.6 °F 8.2 °F 1.4 °F 49% 30.36 in 10.0 mi West 6.9 mph - N/A   Overcast
12:15 PM 19.4 °F 12.8 °F 3.2 °F 49% 30.35 in 10.0 mi West 4.6 mph - N/A   Overcast
12:35 PM 19.4 °F - 5.0 °F 54% 30.33 in 10.0 mi Calm Calm - N/A   Overcast
12:55 PM 21.2 °F 14.9 °F 6.8 °F 54% 30.33 in 10.0 mi West 4.6 mph - N/A   Overcast
1:15 PM 23.0 °F 12.4 °F 8.6 °F 54% 30.34 in 10.0 mi WNW 10.4 mph - N/A   Mostly Cloudy
1:35 PM 23.0 °F 11.7 °F 8.6 °F 54% 30.33 in 10.0 mi West 11.5 mph - N/A   Mostly Cloudy
1:55 PM 23.0 °F 12.4 °F 10.4 °F 59% 30.33 in 10.0 mi West 10.4 mph - N/A   Overcast
2:16 PM 24.8 °F 13.4 °F 12.2 °F 59% 30.33 in 10.0 mi WNW 12.7 mph 18.4 mph N/A   Overcast
2:35 PM 24.8 °F 14.0 °F 14.0 °F 64% 30.32 in 10.0 mi WNW 11.5 mph - N/A   Mostly Cloudy
2:55 PM 24.8 °F 13.4 °F 15.8 °F 69% 30.32 in 10.0 mi WNW 12.7 mph - N/A   Clear
3:15 PM 24.8 °F 12.9 °F 15.8 °F 69% 30.32 in 10.0 mi WNW 13.8 mph - N/A   Clear
3:35 PM 24.8 °F 14.0 °F 15.8 °F 69% 30.33 in 10.0 mi WNW 11.5 mph - N/A   Clear
3:55 PM 24.8 °F 13.4 °F 15.8 °F 69% 30.34 in 10.0 mi NW 12.7 mph - N/A   Clear
4:15 PM 24.8 °F 16.9 °F 15.8 °F 69% 30.34 in 10.0 mi WNW 6.9 mph - N/A   Clear
4:35 PM 24.8 °F 16.1 °F 15.8 °F 69% 30.34 in 10.0 mi WNW 8.1 mph - N/A   Clear
4:55 PM 23.0 °F 14.7 °F 15.8 °F 74% 30.34 in 10.0 mi NW 6.9 mph - N/A   Clear
5:15 PM 21.2 °F 12.6 °F 15.8 °F 80% 30.35 in 10.0 mi West 6.9 mph - N/A   Clear
5:35 PM 21.2 °F 13.6 °F 14.0 °F 74% 30.34 in 10.0 mi NW 5.8 mph - N/A   Clear
5:56 PM 21.2 °F 16.4 °F 14.0 °F 74% 30.35 in 10.0 mi West 3.5 mph - N/A   Clear
6:15 PM 21.2 °F - 14.0 °F 74% 30.35 in 10.0 mi Calm Calm - N/A   Clear
6:35 PM 21.2 °F 13.6 °F 14.0 °F 74% 30.35 in 10.0 mi WNW 5.8 mph - N/A   Scattered Clouds
6:56 PM 19.4 °F 12.8 °F 14.0 °F 80% 30.35 in 10.0 mi WNW 4.6 mph - N/A   Clear
7:15 PM 19.4 °F - 12.2 °F 74% 30.35 in 10.0 mi Calm Calm - N/A   Clear
7:35 PM 19.4 °F - 12.2 °F 74% 30.35 in 10.0 mi Calm Calm - N/A   Clear
7:55 PM 19.4 °F - 12.2 °F 74% 30.35 in 10.0 mi Calm Calm - N/A   Clear
8:15 PM 19.4 °F - 12.2 °F 74% 30.35 in 10.0 mi Calm Calm - N/A   Scattered Clouds
8:55 PM 19.4 °F - 14.0 °F 80% 30.35 in 10.0 mi Calm Calm - N/A   Overcast
9:15 PM 19.4 °F 12.8 °F 14.0 °F 80% 30.35 in 10.0 mi NW 4.6 mph - N/A   Overcast
9:35 PM 19.4 °F - 14.0 °F 80% 30.34 in 10.0 mi Calm Calm - N/A   Overcast
9:55 PM 19.4 °F - 14.0 °F 80% 30.33 in 10.0 mi Calm Calm - N/A   Overcast
10:15 PM 19.4 °F - 14.0 °F 80% 30.32 in 10.0 mi Calm Calm - N/A   Overcast
10:35 PM 19.4 °F - 14.0 °F 80% 30.30 in 10.0 mi Calm Calm - N/A   Overcast
10:55 PM 19.4 °F - 14.0 °F 80% 30.29 in 10.0 mi Calm Calm - N/A   Overcast
11:15 PM 19.4 °F - 15.8 °F 86% 30.30 in 10.0 mi Calm Calm - N/A   Overcast
11:35 PM 19.4 °F - 15.8 °F 86% 30.29 in 10.0 mi Calm Calm - N/A   Overcast
11:55 PM 19.4 °F 12.8 °F 14.0 °F 80% 30.28 in 10.0 mi SE 4.6 mph - N/A   Overcast